Satellite-Ground Cal/Val Region Overpasses Predictions

Prediction of Satellite NPP Overpassing Cal/Val Region: PacNW

Region Location: (Latitude: 10.00, Longitude: 139.50) to (Latitude: 22.70, Longitude: 165.60).

Table of predicted overpasses for the next 14.0 days since TLE Epoch: 8/25/2017
Interval Starting Time Starting Location Ending Time Ending Location
1 08/26/2017 03:17:34 ( 10.04, 150.40) 08/26/2017 03:21:09 ( 22.66, 147.39)
2 08/26/2017 15:49:28 ( 22.65, 147.63) 08/26/2017 15:53:03 ( 10.03, 144.63)
3 08/27/2017 02:58:33 ( 10.02, 155.16) 08/27/2017 03:02:09 ( 22.70, 152.14)
4 08/27/2017 15:30:27 ( 22.67, 152.39) 08/27/2017 15:34:02 ( 10.05, 149.39)
5 08/28/2017 02:39:33 ( 10.06, 159.90) 08/28/2017 02:43:08 ( 22.68, 156.90)
6 08/28/2017 15:11:25 ( 22.69, 157.15) 08/28/2017 15:15:01 ( 10.02, 154.14)
7 08/29/2017 02:20:31 ( 10.03, 164.66) 08/29/2017 02:24:06 ( 22.66, 161.66)
8 08/29/2017 14:52:25 ( 22.66, 161.90) 08/29/2017 14:56:00 ( 10.04, 158.90)
9 08/30/2017 03:43:00 ( 10.02, 144.05) 08/30/2017 03:46:36 ( 22.70, 141.03)
10 08/30/2017 14:34:37 ( 18.34, 165.59) 08/30/2017 14:36:59 ( 10.00, 163.64)
11 08/30/2017 16:14:53 ( 22.68, 141.29) 08/30/2017 16:16:58 ( 15.34, 139.51)
12 08/31/2017 03:23:59 ( 10.05, 148.80) 08/31/2017 03:27:34 ( 22.68, 145.79)
13 08/31/2017 15:55:52 ( 22.70, 146.05) 08/31/2017 15:59:28 ( 10.02, 143.03)
14 09/01/2017 03:04:58 ( 10.03, 153.56) 09/01/2017 03:08:33 ( 22.66, 150.55)
15 09/01/2017 15:36:51 ( 22.66, 150.79) 09/01/2017 15:40:26 ( 10.04, 147.79)
16 09/02/2017 02:45:56 ( 10.02, 158.32) 09/02/2017 02:49:32 ( 22.70, 155.30)
17 09/02/2017 15:17:50 ( 22.68, 155.55) 09/02/2017 15:21:26 ( 10.00, 152.54)
18 09/03/2017 02:26:56 ( 10.05, 163.06) 09/03/2017 02:30:31 ( 22.68, 160.06)
19 09/03/2017 14:58:49 ( 22.70, 160.31) 09/03/2017 15:02:25 ( 10.02, 157.30)
20 09/04/2017 02:10:36 ( 19.55, 165.59) 09/04/2017 02:11:29 ( 22.66, 164.82)
21 09/04/2017 03:49:24 ( 10.04, 142.45) 09/04/2017 03:52:55 ( 22.43, 139.50)
22 09/04/2017 14:39:48 ( 22.66, 165.06) 09/04/2017 14:43:23 ( 10.04, 162.06)
23 09/04/2017 16:21:18 ( 22.66, 139.68) 09/04/2017 16:21:30 ( 21.95, 139.51)
24 09/05/2017 03:30:23 ( 10.02, 147.21) 09/05/2017 03:33:58 ( 22.64, 144.20)
25 09/05/2017 16:02:17 ( 22.68, 144.44) 09/05/2017 16:05:52 ( 10.06, 141.44)
26 09/06/2017 03:11:21 ( 10.00, 151.97) 09/06/2017 03:14:57 ( 22.68, 148.95)
27 09/06/2017 15:43:15 ( 22.69, 149.20) 09/06/2017 15:46:51 ( 10.02, 146.19)
28 09/07/2017 02:52:21 ( 10.04, 156.71) 09/07/2017 02:55:56 ( 22.66, 153.71)
29 09/07/2017 15:24:15 ( 22.65, 153.95) 09/07/2017 15:27:50 ( 10.04, 150.95)
30 09/08/2017 02:33:19 ( 10.03, 161.47) 09/08/2017 02:36:54 ( 22.65, 158.47)


NCC Satellite Cal/Val Overpasses Prediction Service
